Location: Newark
(44.1667°N, 8.2500°E)
Time: 22:48:23
(UTC+00:00)

Vanguard 2 - Pass Details

Date: 11 December 2019
Orbit: 553 x 2938 km, 32.9° (Epoch: 21 January)

Event Time Altitude Azimuth Distance (km) Brightness Sun altitude
Exits shadow 00:07:07 19° 100° (E) 5,004 11.6 -66.7°
Drops below altitude 10° 00:11:22 10° 91° (E) 5,749 12.0 -66.3°
Sets 00:16:14 0° 84° (E) 6,673 12.5 -65.8°
